Weather History for Chippewa, MI

Change the Weather History Date:

Sunday, March 2, 2014

  Actual Average Record
Temperature  
Mean Temperature -4 °F -  
Max Temperature 8 °F 33 °F 49 °F (1983)
Min Temperature -14 °F 12 °F -18 °F (1989)
Degree Days  
Heating Degree Days 69    
Moisture  
Dew Point -11 °F    
Average Humidity 76    
Maximum Humidity 92    
Minimum Humidity 44    
Precipitation  
Precipitation 0.00 in - - ()
Sea Level Pressure  
Sea Level Pressure 30.29 in    
Wind  
Wind Speed 7 mph (West)    
Max Wind Speed 16 mph    
Max Gust Speed 22 mph    
Visibility 10 miles    
Events      
Averages and records for this station are not official NWS values.
T = Trace of Precipitation, MM = Missing Value Source: NWS Daily Summary

Daily Weather History Graph

Daily Weather History Graph

Search for Another Location

Airport:

Trip Planner

Search our weather history database for the weather conditions in past years. The results will help you decide how hot, cold, wet, or windy it might be!

Date:

Astronomy

Mar. 02, 2014 Rise Set
Actual Time 7:15 AM EST 6:25 PM EST
Civil Twilight 6:45 AM EST 6:55 PM EST
Nautical Twilight 6:10 AM EST 7:30 PM EST
Astronomical Twilight 5:35 AM EST 8:05 PM EST
Moon 7:39 AM EST (3/2) 8:29 PM EST (3/2)
Length of Visible Light 12h 10m
Length of Day
11h 10m
Waxing Crescent, 3% of the Moon is Illuminated
Mar 2
Waxing Crescent
Mar 8
First Quarter
Mar 16
Full
Mar 23
Last Quarter
Mar 30
New

Hourly Weather History & Observations

Time (EST) Temp. Windchill Dew Point Humidity Pressure Visibility Wind Dir Wind Speed Gust Speed Precip Events Conditions
12:15 AM -9.4 °F -18.6 °F -13.0 °F 84% 30.30 in 10.0 mi SW 3.5 mph - N/A   Clear
12:35 AM -9.4 °F -18.6 °F -13.0 °F 84% 30.30 in 10.0 mi WSW 3.5 mph - N/A   Clear
12:55 AM -9.4 °F -20.9 °F -11.2 °F 92% 30.31 in 10.0 mi SW 4.6 mph - N/A   Clear
1:15 AM -9.4 °F - -13.0 °F 84% 30.30 in 10.0 mi Calm Calm - N/A   Clear
1:35 AM -11.2 °F - -14.8 °F 84% 30.31 in 10.0 mi Calm Calm - N/A   Clear
1:55 AM -11.2 °F -23.0 °F -14.8 °F 84% 30.32 in 10.0 mi WSW 4.6 mph - N/A   Clear
2:15 AM -11.2 °F -23.0 °F -14.8 °F 84% 30.30 in 10.0 mi WSW 4.6 mph - N/A   Partly Cloudy
2:35 AM -11.2 °F -24.8 °F -14.8 °F 84% 30.30 in 10.0 mi WSW 5.8 mph - N/A   Clear
2:55 AM -11.2 °F -24.8 °F -14.8 °F 84% 30.30 in 10.0 mi WSW 5.8 mph - N/A   Partly Cloudy
3:15 AM -11.2 °F -24.8 °F -14.8 °F 84% 30.30 in 10.0 mi WSW 5.8 mph - N/A   Clear
3:35 AM -11.2 °F -24.8 °F -14.8 °F 84% 30.31 in 10.0 mi WSW 5.8 mph - N/A   Clear
3:55 AM -11.2 °F -23.0 °F -14.8 °F 84% 30.31 in 10.0 mi WSW 4.6 mph - N/A   Scattered Clouds
4:15 AM -13.0 °F -28.6 °F -14.8 °F 92% 30.31 in 10.0 mi WSW 6.9 mph - N/A   Partly Cloudy
4:35 AM -13.0 °F -27.0 °F -16.6 °F 84% 30.31 in 10.0 mi WSW 5.8 mph - N/A   Partly Cloudy
4:55 AM -13.0 °F -27.0 °F -14.8 °F 92% 30.31 in 10.0 mi WSW 5.8 mph - N/A   Mostly Cloudy
5:15 AM - - - N/A% 30.31 in 10.0 mi West 5.8 mph - N/A   Overcast
5:35 AM -11.2 °F -24.8 °F -14.8 °F 84% 30.32 in 10.0 mi West 5.8 mph - N/A   Overcast
5:55 AM -13.0 °F -25.1 °F -16.6 °F 84% 30.32 in 10.0 mi WSW 4.6 mph - N/A   Scattered Clouds
6:15 AM -13.0 °F -28.6 °F -16.6 °F 84% 30.32 in 10.0 mi WSW 6.9 mph - N/A   Clear
6:35 AM -13.0 °F -28.6 °F -14.8 °F 92% 30.33 in 10.0 mi WSW 6.9 mph - N/A   Clear
6:55 AM -13.0 °F -27.0 °F -14.8 °F 92% 30.32 in 10.0 mi WSW 5.8 mph - N/A   Clear
7:15 AM -14.8 °F -30.8 °F -16.6 °F 92% 30.32 in 10.0 mi West 6.9 mph - N/A   Clear
7:35 AM -14.8 °F -30.8 °F -16.6 °F 92% 30.32 in 10.0 mi West 6.9 mph - N/A   Clear
7:55 AM - - - N/A% 30.32 in 10.0 mi West 6.9 mph - N/A   Clear
8:15 AM -11.2 °F -26.4 °F -14.8 °F 84% 30.33 in 10.0 mi West 6.9 mph - N/A   Clear
8:35 AM -11.2 °F -24.8 °F -14.8 °F 84% 30.33 in 10.0 mi West 5.8 mph - N/A   Clear
8:55 AM -9.4 °F -24.3 °F -11.2 °F 92% 30.32 in 10.0 mi West 6.9 mph - N/A   Clear
9:15 AM -5.8 °F -16.7 °F -9.4 °F 84% 30.32 in 10.0 mi West 4.6 mph - N/A   Clear
9:35 AM -4.0 °F -17.8 °F -7.6 °F 85% 30.31 in 10.0 mi West 6.9 mph - N/A   Clear
9:55 AM -2.2 °F -20.7 °F -7.6 °F 78% 30.30 in 10.0 mi West 12.7 mph - N/A   Clear
10:15 AM -0.4 °F -18.4 °F -7.6 °F 72% 30.30 in 10.0 mi West 12.7 mph 17.3 mph N/A   Partly Cloudy
10:35 AM -0.4 °F -16.7 °F -7.6 °F 72% 30.31 in 10.0 mi WNW 10.4 mph - N/A   Scattered Clouds
10:55 AM 1.4 °F -16.9 °F -7.6 °F 66% 30.30 in 10.0 mi West 13.8 mph - N/A   Partly Cloudy
11:15 AM 1.4 °F -12.5 °F -9.4 °F 61% 30.30 in 10.0 mi WSW 8.1 mph - N/A   Clear
11:35 AM 1.4 °F -14.5 °F -9.4 °F 61% 30.29 in 10.0 mi West 10.4 mph - N/A   Clear
11:55 AM 3.2 °F -13.1 °F -11.2 °F 51% 30.30 in 10.0 mi WSW 11.5 mph - N/A   Clear
12:15 PM 3.2 °F -11.3 °F -9.4 °F 56% 30.29 in 10.0 mi West 9.2 mph 16.1 mph N/A   Clear
12:35 PM 3.2 °F -11.3 °F -9.4 °F 56% 30.29 in 10.0 mi WSW 9.2 mph - N/A   Clear
12:55 PM 5.0 °F -5.6 °F -11.2 °F 47% 30.28 in 10.0 mi WSW 5.8 mph - N/A   Clear
1:15 PM 6.8 °F -3.5 °F -11.2 °F 44% 30.27 in 10.0 mi West 5.8 mph 16.1 mph N/A   Clear
1:35 PM 6.8 °F -5.9 °F -7.6 °F 52% 30.26 in 10.0 mi NNW 8.1 mph 21.9 mph N/A   Partly Cloudy
1:55 PM 6.8 °F -6.9 °F -7.6 °F 52% 30.25 in 10.0 mi NNW 9.2 mph - N/A   Partly Cloudy
2:15 PM 6.8 °F -9.3 °F -7.6 °F 52% 30.25 in 10.0 mi North 12.7 mph - N/A   Clear
2:35 PM 3.2 °F -13.1 °F -5.8 °F 66% 30.24 in 10.0 mi North 11.5 mph - N/A   Clear
2:55 PM 5.0 °F -10.8 °F -5.8 °F 61% 30.24 in 10.0 mi NNW 11.5 mph - N/A   Clear
3:15 PM 3.2 °F -13.9 °F -5.8 °F 66% 30.24 in 10.0 mi NNW 12.7 mph 18.4 mph N/A   Partly Cloudy
3:35 PM 3.2 °F -13.9 °F -7.6 °F 61% 30.24 in 10.0 mi NNW 12.7 mph 18.4 mph N/A   Partly Cloudy
3:55 PM 1.4 °F -15.3 °F -7.6 °F 66% 30.25 in 10.0 mi North 11.5 mph - N/A   Clear
4:15 PM 3.2 °F -13.1 °F -7.6 °F 61% 30.24 in 10.0 mi North 11.5 mph - N/A   Clear
4:35 PM 1.4 °F -15.3 °F -7.6 °F 66% 30.24 in 10.0 mi NW 11.5 mph - N/A   Clear
4:55 PM 1.4 °F -16.1 °F -7.6 °F 66% 30.23 in 10.0 mi NNW 12.7 mph 16.1 mph N/A   Clear
5:15 PM 1.4 °F -16.9 °F -7.6 °F 66% 30.24 in 10.0 mi NW 13.8 mph - N/A   Clear
5:35 PM 1.4 °F -13.5 °F -7.6 °F 66% 30.24 in 10.0 mi NW 9.2 mph - N/A   Clear
5:55 PM -0.4 °F -20.5 °F -9.4 °F 66% 30.24 in 10.0 mi NW 16.1 mph 20.7 mph N/A   Clear
6:15 PM -2.2 °F -21.5 °F -9.4 °F 71% 30.24 in 10.0 mi NW 13.8 mph - N/A   Clear
6:35 PM -2.2 °F -21.5 °F -9.4 °F 71% 30.25 in 10.0 mi NW 13.8 mph - N/A   Clear
6:55 PM -2.2 °F -20.7 °F -9.4 °F 71% 30.26 in 10.0 mi NW 12.7 mph - N/A   Clear
7:15 PM -4.0 °F -24.5 °F -9.4 °F 78% 30.27 in 10.0 mi NW 15.0 mph 18.4 mph N/A   Clear
7:35 PM -4.0 °F -22.1 °F -9.4 °F 78% 30.28 in 10.0 mi WNW 11.5 mph - N/A   Clear
7:55 PM -5.8 °F -23.4 °F -11.2 °F 77% 30.28 in 10.0 mi WNW 10.4 mph - N/A   Clear
8:15 PM -5.8 °F -22.4 °F -11.2 °F 77% 30.28 in 10.0 mi WNW 9.2 mph - N/A   Clear
8:35 PM -5.8 °F -21.2 °F -11.2 °F 77% 30.29 in 10.0 mi WNW 8.1 mph - N/A   Clear
8:55 PM -5.8 °F -22.4 °F -9.4 °F 84% 30.29 in 7.0 mi WNW 9.2 mph - N/A   Mostly Cloudy
9:15 PM -5.8 °F -19.9 °F -9.4 °F 84% 30.30 in 10.0 mi West 6.9 mph - N/A   Scattered Clouds
9:35 PM -7.6 °F -22.1 °F -9.4 °F 92% 30.30 in 10.0 mi West 6.9 mph - N/A   Clear
9:55 PM -7.6 °F -18.8 °F -11.2 °F 84% 30.31 in 10.0 mi WSW 4.6 mph - N/A   Clear
10:15 PM -7.6 °F -18.8 °F - N/A% 30.31 in 10.0 mi WSW 4.6 mph - N/A   Clear
10:35 PM -9.4 °F -20.9 °F -11.2 °F 92% 30.31 in 10.0 mi West 4.6 mph - N/A   Clear
10:55 PM -9.4 °F -18.6 °F -13.0 °F 84% 30.31 in 10.0 mi WSW 3.5 mph - N/A   Clear
11:15 PM -9.4 °F -20.9 °F -13.0 °F 84% 30.31 in 10.0 mi WSW 4.6 mph - N/A   Clear
11:35 PM -9.4 °F -20.9 °F -11.2 °F 92% 30.31 in 10.0 mi WSW 4.6 mph - N/A   Clear
11:55 PM -9.4 °F -18.6 °F - N/A% 30.32 in 10.0 mi SW 3.5 mph - N/A   Clear